DB5ZQ Weather Reports


time (UTC)temp
C
wind
direction
speed
KPH
gust
KPH
rain 1hr
cm
rain 24hr
cm
rain mn
cm
humidity
%
barometer
mb
20260509005237 14 253 0.0 0.0 0.00 0.00 0.00 68 1014.9
20260509004737 14 253 0.0 0.0 0.00 0.00 0.00 67 1014.9
20260509004236 15 253 0.0 0.0 0.00 0.00 0.00 67 1014.9
20260509003736 14 253 0.0 0.0 0.00 0.00 0.00 67 1014.9
20260509003236 14 253 0.0 0.0 0.00 0.00 0.00 67 1014.9
20260509002736 15 253 0.0 0.0 0.00 0.00 0.00 67 1014.9
20260509002235 14 253 0.0 0.0 0.00 0.00 0.00 66 1014.9
20260509001735 14 253 0.0 0.0 0.00 0.00 0.00 66 1014.9
20260509001235 15 253 0.0 0.0 0.00 0.00 0.00 66 1014.9
20260509000735 15 253 0.0 0.0 0.00 0.00 0.00 66 1014.9
20260509000234 15 253 0.0 0.0 0.00 0.00 0.00 66 1014.9
20260508235734 15 253 0.0 0.0 0.00 0.00 0.00 66 1015.0
20260508235234 15 253 0.0 0.0 0.00 0.00 0.00 66 1015.0
20260508234733 15 253 0.0 0.0 0.00 0.00 0.00 65 1015.0
20260508234233 15 253 0.0 0.0 0.00 0.00 0.00 65 1015.0
20260508233733 15 253 0.0 0.0 0.00 0.00 0.00 65 1015.0
20260508233232 15 253 0.0 0.0 0.00 0.00 0.00 65 1015.1
20260508232732 15 253 0.0 0.0 0.00 0.00 0.00 65 1015.0
20260508232232 15 253 0.0 0.0 0.00 0.00 0.00 65 1015.0
20260508231732 15 217 0.0 0.0 0.00 0.00 0.00 65 1014.9
20260508231231 15 217 0.0 0.0 0.00 0.00 0.00 64 1015.0
20260508230731 15 217 0.0 0.0 0.00 0.00 0.00 64 1015.0
20260508230231 15 217 0.0 0.0 0.00 0.00 0.00 64 1015.0
20260508225731 15 217 0.0 0.0 0.00 0.00 0.00 64 1015.1
20260508225230 15 217 0.0 0.0 0.00 0.00 0.00 64 1015.1
20260508224730 15 217 0.0 0.0 0.00 0.00 0.00 64 1015.1
20260508224230 15 217 0.0 0.0 0.00 0.00 0.00 64 1015.0
20260508223729 15 217 0.0 0.0 0.00 0.00 0.00 64 1014.9
20260508223229 15 87 0.0 1.6 0.00 0.00 0.00 63 1015.0
20260508222729 15 140 1.6 1.6 0.00 0.00 0.00 63 1014.9
20260508222229 15 265 0.0 0.0 0.00 0.00 0.00 63 1014.9
20260508221728 15 126 0.0 0.0 0.00 0.00 0.00 63 1014.8
20260508221228 15 109 0.0 0.0 0.00 0.00 0.00 63 1014.8
20260508220728 15 109 0.0 1.6 0.00 0.00 0.00 62 1014.8
20260508220227 15 241 0.0 1.6 0.00 0.00 0.00 62 1014.7
20260508215727 16 165 0.0 0.0 0.00 0.00 0.00 62 1014.7
20260508215227 16 165 0.0 0.0 0.00 0.00 0.00 62 1014.7
20260508214727 16 165 0.0 3.2 0.00 0.00 0.00 61 1014.6
20260508214226 16 118 1.6 3.2 0.00 0.00 0.00 61 1014.7
20260508213726 16 95 0.0 1.6 0.00 0.00 0.00 61 1014.6
20260508213226 16 106 0.0 3.2 0.00 0.00 0.00 60 1014.7
20260508212725 16 189 0.0 0.0 0.00 0.00 0.00 60 1014.6
20260508212225 16 189 0.0 4.8 0.00 0.00 0.00 60 1014.6
20260508211725 16 153 0.0 1.6 0.00 0.00 0.00 60 1014.5
20260508211225 16 209 0.0 1.6 0.00 0.00 0.00 59 1014.5
20260508210724 16 288 0.0 0.0 0.00 0.00 0.00 59 1014.5
20260508210224 16 288 0.0 0.0 0.00 0.00 0.00 59 1014.5
20260508205724 16 288 0.0 1.6 0.00 0.00 0.00 58 1014.5
20260508205223 16 143 0.0 1.6 0.00 0.00 0.00 58 1014.5
20260508204723 17 158 0.0 4.8 0.00 0.00 0.00 57 1014.5
20260508204223 17 272 0.0 0.0 0.00 0.00 0.00 57 1014.5
20260508203723 17 272 0.0 0.0 0.00 0.00 0.00 57 1014.4
20260508203222 17 194 0.0 0.0 0.00 0.00 0.00 56 1014.4
20260508202722 17 194 0.0 0.0 0.00 0.00 0.00 56 1014.4
20260508202222 17 194 0.0 0.0 0.00 0.00 0.00 55 1014.3
20260508201721 17 194 0.0 0.0 0.00 0.00 0.00 55 1014.3
20260508201221 17 194 0.0 0.0 0.00 0.00 0.00 55 1014.3
20260508200721 17 194 0.0 1.6 0.00 0.00 0.00 54 1014.2
20260508200221 17 112 0.0 3.2 0.00 0.00 0.00 54 1014.1
20260508195720 17 223 0.0 1.6 0.00 0.00 0.00 53 1014.0
20260508195220 18 74 0.0 1.6 0.00 0.00 0.00 52 1014.0
20260508194720 18 234 0.0 1.6 0.00 0.00 0.00 51 1014.0
20260508194219 18 234 0.0 0.0 0.00 0.00 0.00 50 1013.9
20260508193719 18 234 0.0 0.0 0.00 0.00 0.00 50 1013.9
20260508193219 18 234 0.0 0.0 0.00 0.00 0.00 49 1013.8
20260508192719 18 234 0.0 0.0 0.00 0.00 0.00 48 1013.8
20260508192218 18 234 0.0 0.0 0.00 0.00 0.00 48 1013.8
20260508191718 18 67 0.0 0.0 0.00 0.00 0.00 47 1013.7
20260508191218 20 67 0.0 0.0 0.00 0.00 0.00 47 1013.7
20260508190718 19 67 0.0 0.0 0.00 0.00 0.00 46 1013.6
20260508190217 20 67 0.0 0.0 0.00 0.00 0.00 46 1013.5
20260508185717 20 67 0.0 0.0 0.00 0.00 0.00 46 1013.5
20260508185217 20 67 0.0 0.0 0.00 0.00 0.00 45 1013.4
20260508184716 20 67 0.0 0.0 0.00 0.00 0.00 45 1013.4
20260508184216 20 67 0.0 0.0 0.00 0.00 0.00 44 1013.4
20260508183716 20 67 0.0 0.0 0.00 0.00 0.00 43 1013.3
20260508183216 20 67 0.0 0.0 0.00 0.00 0.00 43 1013.3
20260508182715 20 67 0.0 0.0 0.00 0.00 0.00 42 1013.2
20260508182215 21 67 0.0 0.0 0.00 0.00 0.00 42 1013.2
20260508181715 21 67 0.0 0.0 0.00 0.00 0.00 42 1013.2
20260508181214 21 67 0.0 0.0 0.00 0.00 0.00 41 1013.1
20260508180714 21 67 0.0 0.0 0.00 0.00 0.00 41 1013.1
20260508180214 21 67 0.0 0.0 0.00 0.00 0.00 40 1013.1
20260508175714 21 67 0.0 0.0 0.00 0.00 0.00 40 1013.0
20260508175213 21 67 0.0 0.0 0.00 0.00 0.00 40 1013.0
20260508174713 22 67 0.0 0.0 0.00 0.00 0.00 39 1013.1
20260508174213 22 67 0.0 0.0 0.00 0.00 0.00 39 1013.0
20260508173712 22 67 0.0 0.0 0.00 0.00 0.00 38 1013.0
20260508173212 22 67 0.0 0.0 0.00 0.00 0.00 38 1013.0
20260508172712 22 67 0.0 3.2 0.00 0.00 0.00 37 1013.0
20260508172212 23 257 0.0 1.6 0.00 0.00 0.00 36 1013.1
20260508171711 23 99 0.0 0.0 0.00 0.00 0.00 35 1013.0
20260508171211 24 99 0.0 4.8 0.00 0.00 0.00 33 1013.0
20260508170711 25 264 0.0 1.6 0.00 0.00 0.00 32 1013.0
20260508170210 25 22 0.0 3.2 0.00 0.00 0.00 31 1012.9
20260508165710 25 255 0.0 0.0 0.00 0.00 0.00 31 1012.8
20260508165210 25 255 0.0 3.2 0.00 0.00 0.00 31 1012.8
20260508164710 25 285 0.0 1.6 0.00 0.00 0.00 31 1012.8
20260508164209 25 122 0.0 0.0 0.00 0.00 0.00 31 1012.8
20260508163709 25 122 0.0 0.0 0.00 0.00 0.00 30 1012.8
20260508163209 25 122 0.0 3.2 0.00 0.00 0.00 30 1012.8
20260508162708 26 18 0.0 4.8 0.00 0.00 0.00 29 1012.8
20260508162208 26 109 0.0 4.8 0.00 0.00 0.00 28 1012.8
20260508161708 26 216 1.6 1.6 0.00 0.00 0.00 28 1012.8
20260508161208 25 230 0.0 11.3 0.00 0.00 0.00 29 1012.8
20260508160707 25 284 3.2 6.4 0.00 0.00 0.00 29 1012.8
20260508160207 25 92 1.6 1.6 0.00 0.00 0.00 30 1012.9
20260508155707 25 268 0.0 1.6 0.00 0.00 0.00 29 1012.9
20260508155206 26 5 0.0 1.6 0.00 0.00 0.00 28 1012.9
20260508154706 26 158 0.0 6.4 0.00 0.00 0.00 28 1012.9
20260508154206 26 248 0.0 6.4 0.00 0.00 0.00 29 1012.9
20260508153706 26 305 0.0 0.0 0.00 0.00 0.00 29 1012.9
20260508153205 26 222 0.0 6.4 0.00 0.00 0.00 28 1012.9
20260508152705 27 143 1.6 4.8 0.00 0.00 0.00 26 1013.0
20260508152205 27 113 0.0 4.8 0.00 0.00 0.00 26 1013.0
20260508151704 27 105 1.6 6.4 0.00 0.00 0.00 26 1013.0
20260508151204 27 116 0.0 3.2 0.00 0.00 0.00 25 1013.0
20260508150704 27 73 0.0 3.2 0.00 0.00 0.00 25 1013.1
20260508150204 27 237 1.6 4.8 0.00 0.00 0.00 26 1013.1
20260508145703 27 247 0.0 1.6 0.00 0.00 0.00 27 1013.1
20260508145203 26 215 0.0 4.8 0.00 0.00 0.00 27 1013.2
20260508144703 26 67 0.0 8.0 0.00 0.00 0.00 28 1013.2
20260508144202 26 268 3.2 4.8 0.00 0.00 0.00 29 1013.2
20260508143702 25 320 0.0 3.2 0.00 0.00 0.00 31 1013.3
20260508143202 25 146 1.6 4.8 0.00 0.00 0.00 32 1013.3
20260508142702 23 33 0.0 6.4 0.00 0.00 0.00 33 1013.3
20260508142201 23 237 0.0 6.4 0.00 0.00 0.00 34 1013.4
20260508141701 23 143 0.0 6.4 0.00 0.00 0.00 35 1013.4
20260508141201 23 268 1.6 8.0 0.00 0.00 0.00 34 1013.4
20260508140700 23 274 0.0 4.8 0.00 0.00 0.00 35 1013.4
20260508140200 22 163 0.0 6.4 0.00 0.00 0.00 36 1013.5
20260508135700 22 246 0.0 3.2 0.00 0.00 0.00 36 1013.5
20260508135200 22 70 0.0 1.6 0.00 0.00 0.00 36 1013.6
20260508134659 22 236 0.0 11.3 0.00 0.00 0.00 37 1013.5
20260508134159 22 281 3.2 9.7 0.00 0.00 0.00 37 1013.5
20260508133659 22 178 0.0 8.0 0.00 0.00 0.00 37 1013.6
20260508133158 22 42 0.0 4.8 0.00 0.00 0.00 36 1013.6
20260508132658 22 99 0.0 3.2 0.00 0.00 0.00 37 1013.7
20260508132158 22 118 0.0 4.8 0.00 0.00 0.00 36 1013.6
20260508131658 22 278 0.0 4.8 0.00 0.00 0.00 37 1013.7
20260508131157 22 187 0.0 6.4 0.00 0.00 0.00 37 1013.7
20260508130657 22 247 1.6 4.8 0.00 0.00 0.00 38 1013.7
20260508130157 22 191 0.0 4.8 0.00 0.00 0.00 38 1013.7
20260508125656 22 188 0.0 4.8 0.00 0.00 0.00 37 1013.8
20260508125156 22 282 0.0 3.2 0.00 0.00 0.00 37 1013.8
20260508124656 22 306 0.0 3.2 0.00 0.00 0.00 36 1013.8
20260508124156 23 217 0.0 12.9 0.00 0.00 0.00 36 1013.8
20260508123655 23 158 9.7 9.7 0.00 0.00 0.00 35 1013.8
20260508123155 23 284 0.0 4.8 0.00 0.00 0.00 35 1013.8
20260508122655 23 262 0.0 4.8 0.00 0.00 0.00 35 1013.9
20260508122154 23 185 0.0 4.8 0.00 0.00 0.00 34 1013.8
20260508121654 23 270 3.2 8.0 0.00 0.00 0.00 35 1013.9
20260508121154 23 30 0.0 8.0 0.00 0.00 0.00 36 1013.9
20260508120654 23 312 0.0 6.4 0.00 0.00 0.00 36 1013.8
20260508120153 23 70 4.8 8.0 0.00 0.00 0.00 35 1013.8
20260508115653 23 25 0.0 3.2 0.00 0.00 0.00 35 1013.8
20260508115153 23 270 0.0 4.8 0.00 0.00 0.00 36 1013.8
20260508114653 22 101 3.2 6.4 0.00 0.00 0.00 37 1014.0
20260508114152 22 137 0.0 8.0 0.00 0.00 0.00 37 1013.9
20260508113652 22 104 0.0 6.4 0.00 0.00 0.00 38 1014.0
20260508113152 22 151 1.6 8.0 0.00 0.00 0.00 41 1013.9
20260508112651 21 262 6.4 8.0 0.00 0.00 0.00 42 1014.0
20260508112151 21 77 0.0 6.4 0.00 0.00 0.00 41 1014.0
20260508111651 21 142 3.2 4.8 0.00 0.00 0.00 44 1014.0
20260508111151 21 227 0.0 4.8 0.00 0.00 0.00 48 1014.0
20260508110650 20 293 1.6 4.8 0.00 0.00 0.00 49 1014.1
20260508110150 20 236 0.0 8.0 0.00 0.00 0.00 49 1014.1
20260508105650 19 284 1.6 6.4 0.00 0.00 0.00 52 1014.1
20260508105149 19 104 0.0 3.2 0.00 0.00 0.00 54 1014.2
20260508104649 18 21 0.0 11.3 0.00 0.00 0.00 55 1014.2
20260508104149 18 255 0.0 6.4 0.00 0.00 0.00 56 1014.2
20260508103649 18 279 0.0 4.8 0.00 0.00 0.00 57 1014.2
20260508103148 18 277 4.8 8.0 0.00 0.00 0.00 56 1014.3
20260508102648 18 57 1.6 9.7 0.00 0.00 0.00 59 1014.4
20260508102148 17 338 0.0 6.4 0.00 0.00 0.00 59 1014.3
20260508101647 17 327 1.6 3.2 0.00 0.00 0.00 58 1014.4
20260508101147 17 116 3.2 6.4 0.00 0.00 0.00 59 1014.5
20260508100647 17 286 0.0 8.0 0.00 0.00 0.00 61 1014.5
20260508100147 17 170 0.0 8.0 0.00 0.00 0.00 62 1014.6
20260508095646 16 247 3.2 6.4 0.00 0.00 0.00 63 1014.5
20260508095146 16 286 1.6 6.4 0.00 0.00 0.00 62 1014.5
20260508094646 16 288 4.8 9.7 0.00 0.00 0.00 62 1014.5
20260508094145 16 271 0.0 6.4 0.00 0.00 0.00 62 1014.5
20260508093645 16 203 1.6 4.8 0.00 0.00 0.00 63 1014.5
20260508093145 16 174 0.0 11.3 0.00 0.00 0.00 63 1014.6
20260508092645 16 150 8.0 8.0 0.00 0.00 0.00 63 1014.6
20260508092144 16 237 1.6 9.7 0.00 0.00 0.00 63 1014.7
20260508091644 16 275 0.0 9.7 0.00 0.00 0.00 64 1014.6
20260508091144 16 229 0.0 3.2 0.00 0.00 0.00 65 1014.6
20260508090643 15 161 0.0 4.8 0.00 0.00 0.00 66 1014.7
20260508090143 15 226 0.0 9.7 0.00 0.00 0.00 66 1014.7
20260508085643 15 206 0.0 6.4 0.00 0.00 0.00 65 1014.6
20260508085143 15 157 0.0 3.2 0.00 0.00 0.00 66 1014.7
20260508084642 15 232 0.0 6.4 0.00 0.00 0.00 66 1014.7
20260508084142 15 233 3.2 11.3 0.00 0.00 0.00 66 1014.7
20260508083642 15 226 1.6 6.4 0.00 0.00 0.00 67 1014.8
20260508083141 15 293 0.0 4.8 0.00 0.00 0.00 68 1014.8
20260508082641 15 254 0.0 6.4 0.00 0.00 0.00 68 1014.8
20260508082141 14 192 1.6 8.0 0.00 0.00 0.00 69 1014.8
20260508081641 14 264 0.0 3.2 0.00 0.00 0.00 69 1014.8
20260508081140 14 268 1.6 8.0 0.00 0.00 0.00 70 1014.8
20260508080640 14 153 0.0 6.4 0.00 0.00 0.00 70 1014.9
20260508080140 13 279 3.2 6.4 0.00 0.00 0.00 70 1014.8
20260508075640 13 227 0.0 11.3 0.00 0.00 0.00 71 1014.9
20260508075139 13 241 4.8 11.3 0.00 0.00 0.00 72 1014.9
20260508074639 13 232 1.6 4.8 0.00 0.00 0.00 73 1014.9
20260508074139 13 254 0.0 9.7 0.00 0.00 0.00 73 1014.9
20260508073638 13 330 0.0 4.8 0.00 0.00 0.00 73 1014.9
20260508073138 13 104 0.0 6.4 0.00 0.00 0.00 73 1014.8
20260508072638 13 192 1.6 6.4 0.00 0.00 0.00 73 1014.8
20260508072138 13 201 0.0 8.0 0.00 0.00 0.00 74 1014.9
20260508071637 13 120 0.0 8.0 0.00 0.00 0.00 74 1014.8
20260508071137 13 279 4.8 6.4 0.00 0.00 0.00 75 1014.8
20260508070637 12 158 0.0 3.2 0.00 0.00 0.00 75 1014.7
20260508070136 12 258 1.6 8.0 0.00 0.00 0.00 75 1014.8
20260508065636 12 111 0.0 8.0 0.00 0.00 0.00 76 1014.8
20260508065136 12 295 0.0 6.4 0.00 0.00 0.00 76 1014.8
20260508064636 12 181 0.0 4.8 0.00 0.00 0.00 76 1014.7
20260508064135 12 7 0.0 1.6 0.00 0.00 0.00 77 1014.7
20260508063635 12 223 0.0 0.0 0.00 0.00 0.00 77 1014.6
20260508063135 12 223 0.0 6.4 0.00 0.00 0.00 77 1014.6
20260508062634 11 352 0.0 3.2 0.00 0.00 0.00 78 1014.6
20260508062134 11 303 0.0 3.2 0.00 0.00 0.00 78 1014.5
20260508061634 11 135 0.0 1.6 0.00 0.00 0.00 78 1014.4
20260508061134 11 246 0.0 1.6 0.00 0.00 0.00 78 1014.4
20260508060633 11 167 0.0 3.2 0.00 0.00 0.00 78 1014.3
20260508060133 11 330 0.0 4.8 0.00 0.00 0.00 78 1014.3
20260508055633 11 147 4.8 4.8 0.00 0.00 0.00 78 1014.2
20260508055132 11 248 0.0 0.0 0.00 0.00 0.00 78 1014.2
20260508054632 11 248 0.0 1.6 0.00 0.00 0.00 78 1014.2
20260508054132 11 215 0.0 6.4 0.00 0.00 0.00 78 1014.2
20260508053632 11 233 0.0 3.2 0.00 0.00 0.00 78 1014.1
20260508053131 11 225 1.6 3.2 0.00 0.00 0.00 77 1014.0
20260508052631 11 239 0.0 1.6 0.00 0.00 0.00 77 1014.1
20260508052131 11 261 0.0 3.2 0.00 0.00 0.00 78 1014.0
20260508051630 11 156 0.0 0.0 0.00 0.00 0.00 77 1014.0
20260508051130 11 156 0.0 0.0 0.00 0.00 0.00 77 1014.0
20260508050630 11 156 0.0 0.0 0.00 0.00 0.00 77 1013.9
20260508050130 11 156 0.0 0.0 0.00 0.00 0.00 77 1013.9
20260508045629 10 156 0.0 0.0 0.00 0.00 0.00 77 1014.0
20260508045129 10 156 0.0 0.0 0.00 0.00 0.00 77 1013.9
20260508044629 11 156 0.0 0.0 0.00 0.00 0.00 77 1013.8
20260508044128 10 156 0.0 0.0 0.00 0.00 0.00 77 1013.7
20260508043628 10 156 0.0 0.0 0.00 0.00 0.00 77 1013.7
20260508043128 10 156 0.0 0.0 0.00 0.00 0.00 77 1013.7
20260508042628 10 156 0.0 0.0 0.00 0.00 0.00 77 1013.7
20260508042127 10 156 0.0 0.0 0.00 0.00 0.00 77 1013.7
20260508041627 10 156 0.0 0.0 0.00 0.00 0.00 77 1013.6
20260508041127 10 156 0.0 0.0 0.00 0.00 0.00 77 1013.6
20260508040626 10 156 0.0 0.0 0.00 0.00 0.00 77 1013.6
20260508040126 10 156 0.0 0.0 0.00 0.00 0.00 77 1013.6
20260508035626 11 156 0.0 0.0 0.00 0.00 0.00 77 1013.6
20260508035126 11 156 0.0 0.0 0.00 0.00 0.00 77 1013.5
20260508034625 11 156 0.0 0.0 0.00 0.00 0.00 77 1013.5
20260508034125 11 156 0.0 0.0 0.00 0.00 0.00 77 1013.5
20260508033625 11 156 0.0 0.0 0.00 0.00 0.00 77 1013.5
20260508033124 11 156 0.0 0.0 0.00 0.00 0.00 77 1013.5
20260508032624 11 156 0.0 0.0 0.00 0.00 0.00 77 1013.5
20260508032124 11 156 0.0 0.0 0.00 0.00 0.00 77 1013.5
20260508031624 11 156 0.0 0.0 0.00 0.00 0.00 77 1013.5
20260508031125 11 156 0.0 0.0 0.00 0.00 0.00 77 1013.6
20260508030623 11 156 0.0 0.0 0.00 0.00 0.00 77 1013.4
20260508030123 11 156 0.0 0.0 0.00 0.00 0.00 76 1013.4
20260508025622 11 156 0.0 0.0 0.00 0.00 0.00 77 1013.4
20260508025122 11 156 0.0 0.0 0.00 0.00 0.00 77 1013.4
20260508024622 11 156 0.0 0.0 0.00 0.00 0.00 76 1013.3
20260508024122 11 156 0.0 0.0 0.00 0.00 0.00 76 1013.4
20260508023621 11 156 0.0 0.0 0.00 0.00 0.00 76 1013.4
20260508023121 11 156 0.0 0.0 0.00 0.00 0.00 76 1013.4
20260508022621 11 156 0.0 0.0 0.00 0.00 0.00 76 1013.4
20260508022121 11 156 0.0 0.0 0.00 0.00 0.00 77 1013.4
20260508021620 11 156 0.0 0.0 0.00 0.00 0.00 77 1013.4
20260508021120 12 156 0.0 0.0 0.00 0.00 0.00 77 1013.4
20260508020620 12 156 0.0 0.0 0.00 0.00 0.00 77 1013.4
20260508020119 12 156 0.0 0.0 0.00 0.00 0.00 77 1013.4
20260508015619 12 156 0.0 0.0 0.00 0.00 0.00 77 1013.4
20260508015119 12 156 0.0 0.0 0.00 0.00 0.00 77 1013.4
20260508014619 11 156 0.0 0.0 0.00 0.00 0.00 77 1013.4
20260508014118 12 156 0.0 0.0 0.00 0.00 0.00 77 1013.4
20260508013618 12 156 0.0 0.0 0.00 0.00 0.00 77 1013.4
20260508013118 12 156 0.0 0.0 0.00 0.00 0.00 76 1013.4
20260508012617 12 156 0.0 0.0 0.00 0.00 0.00 76 1013.4
20260508012117 12 156 0.0 0.0 0.00 0.00 0.00 76 1013.4
20260508011617 12 156 0.0 0.0 0.00 0.00 0.00 76 1013.4
20260508011117 12 156 0.0 0.0 0.00 0.00 0.00 76 1013.4
20260508010616 12 156 0.0 0.0 0.00 0.00 0.00 76 1013.4
20260508010116 12 156 0.0 0.0 0.00 0.00 0.00 76 1013.4
20260508005616 12 156 0.0 0.0 0.00 0.00 0.00 76 1013.5